EW5678 Weather Reports


time (UTC)temp
C
wind
direction
speed
KPH
gust
KPH
rain 1hr
cm
rain 24hr
cm
rain mn
cm
humidity
%
barometer
mb
20260506162657 15 207 19.3 43.5 0.00 0.00 0.00 87 999.0
20260506161757 15 211 17.7 43.5 0.00 0.00 0.00 86 999.2
20260506160857 15 211 20.9 43.5 0.00 0.00 0.00 86 999.2
20260506155957 15 205 19.3 43.5 0.00 0.00 0.00 86 999.0
20260506155057 15 210 22.5 46.7 0.00 0.00 0.00 86 999.3
20260506153257 15 211 19.3 45.1 0.00 0.00 0.00 85 999.4
20260506152357 15 214 16.1 43.5 0.00 0.00 0.00 85 999.6
20260506151457 15 205 19.3 49.9 0.00 0.00 0.00 86 999.5
20260506150557 15 213 17.7 38.6 0.00 0.00 0.00 86 999.3
20260506145657 15 197 17.7 45.1 0.00 0.00 0.00 86 999.3
20260506142957 15 196 17.7 35.4 0.00 0.00 0.00 85 999.5
20260506142056 15 206 19.3 38.6 0.00 0.00 0.00 85 999.4
20260506141156 15 209 17.7 41.8 0.00 0.00 0.00 85 999.4
20260506140256 15 204 22.5 49.9 0.00 0.00 0.00 86 999.6
20260506134456 15 210 20.9 45.1 0.00 0.00 0.00 86 999.7
20260506133556 15 210 20.9 43.5 0.00 0.00 0.00 86 999.5
20260506132656 15 201 19.3 43.5 0.00 0.00 0.00 87 999.6
20260506130856 15 220 19.3 43.5 0.00 0.00 0.00 86 999.4
20260506125956 15 211 17.7 35.4 0.00 0.00 0.00 86 999.5
20260506125056 15 202 17.7 35.4 0.00 0.00 0.00 86 999.6
20260506124156 15 210 19.3 43.5 0.00 0.00 0.00 85 999.7
20260506123256 15 212 20.9 43.5 0.00 0.00 0.00 86 1000.0
20260506122356 15 219 20.9 51.5 0.00 0.00 0.00 86 1000.1
20260506121456 15 211 20.9 46.7 0.00 0.00 0.00 86 1000.0
20260506120556 15 218 19.3 43.5 0.00 0.00 0.00 86 999.9
20260506114756 15 210 20.9 48.3 0.00 0.00 0.00 87 999.8
20260506113856 14 214 22.5 46.7 0.00 0.00 0.00 88 999.9
20260506112956 14 222 22.5 56.3 0.00 0.00 0.00 88 999.8
20260506112056 14 212 22.5 46.7 0.00 0.00 0.00 89 999.9
20260506111156 13 207 19.3 41.8 0.00 0.00 0.00 89 1000.0
20260506110256 13 218 20.9 43.5 0.00 0.00 0.00 91 1000.0
20260506105356 13 208 20.9 43.5 0.00 0.00 0.00 91 999.9
20260506103556 13 213 20.9 49.9 0.00 0.00 0.00 91 999.8
20260506102656 13 212 17.7 49.9 0.00 0.00 0.00 92 1000.0
20260506101756 13 212 19.3 46.7 0.00 0.00 0.00 92 999.9
20260506100856 13 213 19.3 40.2 0.00 0.00 0.00 92 999.9
20260506095956 13 210 19.3 38.6 0.00 0.00 0.00 92 999.8
20260506095055 13 209 19.3 37.0 0.00 0.00 0.00 92 999.7
20260506094155 13 216 19.3 37.0 0.00 0.00 0.00 92 999.7
20260506093256 13 212 20.9 45.1 0.00 0.00 0.00 92 999.7
20260506092355 13 213 20.9 43.5 0.00 0.00 0.00 92 999.6
20260506091455 13 210 17.7 37.0 0.00 0.00 0.00 92 999.8
20260506090555 13 214 20.9 48.3 0.00 0.00 0.00 91 999.8
20260506085655 13 217 19.3 43.5 0.00 0.00 0.00 91 999.9
20260506083855 13 212 19.3 43.5 0.00 0.00 0.00 91 1000.1
20260506082955 13 205 19.3 48.3 0.00 0.00 0.00 90 1000.1
20260506082055 13 201 20.9 45.1 0.00 0.00 0.00 90 1000.1
20260506081155 13 213 22.5 45.1 0.00 0.00 0.00 90 1000.0
20260506080255 13 219 20.9 45.1 0.00 0.00 0.00 90 1000.1
20260506072655 13 213 20.9 43.5 0.00 0.00 0.00 89 1000.3
20260506071755 13 215 24.1 46.7 0.00 0.00 0.00 88 1000.2
20260506070855 13 215 24.1 48.3 0.00 0.00 0.00 88 1000.3
20260506062355 14 216 24.1 51.5 0.00 0.00 0.00 86 1000.2
20260506061455 14 219 29.0 51.5 0.00 0.00 0.00 86 1000.2
20260506051154 14 219 27.4 49.9 0.00 0.00 0.00 84 1000.6
20260506050255 15 222 29.0 57.9 0.00 0.00 0.00 84 1000.6
20260506044455 15 220 33.8 61.2 0.00 0.00 0.00 83 1000.4
20260506043554 15 219 35.4 57.9 0.00 0.00 0.00 82 1000.4
20260506042654 15 221 33.8 53.1 0.00 0.00 0.00 82 1000.5
20260506041755 15 218 29.0 53.1 0.00 0.00 0.00 82 1000.5
20260506040854 15 220 29.0 67.6 0.00 0.00 0.00 82 1000.6
20260506035054 15 221 29.0 59.5 0.00 0.00 0.00 82 1000.4
20260506034154 15 220 29.0 59.5 0.00 0.00 0.00 81 1000.5
20260506033254 15 215 29.0 70.8 0.00 0.00 0.00 82 1000.5
20260506032354 15 211 30.6 62.8 0.00 0.00 0.00 81 1000.5
20260506031454 15 222 32.2 74.0 0.00 0.00 0.00 81 1000.3
20260506025654 15 220 29.0 62.8 0.00 0.00 0.00 81 1000.7
20260506024754 15 214 29.0 59.5 0.00 0.00 0.00 81 1000.5
20260506022954 15 216 30.6 56.3 0.00 0.00 0.00 80 1000.5
20260506022054 15 217 30.6 64.4 0.00 0.00 0.00 80 1000.4
20260506021154 15 216 30.6 57.9 0.00 0.00 0.00 79 1000.7
20260506020254 15 218 30.6 62.8 0.00 0.00 0.00 78 1000.6
20260506015354 16 219 29.0 67.6 0.00 0.00 0.00 77 1000.4
20260506014454 16 222 32.2 61.2 0.00 0.00 0.00 75 1000.5
20260506013554 16 223 35.4 69.2 0.00 0.00 0.00 73 1000.2
20260506012654 17 221 35.4 74.0 0.00 0.00 0.00 72 1000.0
20260506010854 17 222 33.8 67.6 0.00 0.00 0.00 71 999.9
20260506005054 16 217 33.8 62.8 0.00 0.00 0.00 73 999.7
20260506004154 16 217 32.2 62.8 0.00 0.00 0.00 74 999.4
20260506002354 16 211 29.0 59.5 0.00 0.00 0.00 74 999.4
20260506001454 16 220 33.8 69.2 0.00 0.00 0.00 73 999.6
20260506000553 16 226 32.2 69.2 0.00 0.00 0.00 73 999.2
20260505235653 16 220 37.0 67.6 0.00 0.00 0.00 73 999.1
20260505233853 16 220 25.7 57.9 0.00 0.00 0.00 73 998.9
20260505232954 16 214 27.4 56.3 0.00 0.00 0.00 73 998.9
20260505232053 16 213 25.7 49.9 0.00 0.00 0.00 72 998.7
20260505231153 16 219 25.7 53.1 0.00 0.00 0.00 72 998.7
20260505230253 17 218 27.4 56.3 0.00 0.00 0.00 71 998.6
20260505222653 17 213 25.7 56.3 0.00 0.00 0.00 69 998.4
20260505221753 17 220 27.4 49.9 0.00 0.00 0.00 69 998.3
20260505220853 17 217 25.7 56.3 0.00 0.00 0.00 68 998.3
20260505215953 18 218 27.4 61.2 0.00 0.00 0.00 67 998.3
20260505215053 18 212 25.7 48.3 0.00 0.00 0.00 67 998.0
20260505214153 18 218 27.4 56.3 0.00 0.00 0.00 67 998.0
20260505213253 18 212 22.5 49.9 0.00 0.00 0.00 67 997.9
20260505212353 18 211 20.9 43.5 0.00 0.00 0.00 68 998.1
20260505211453 18 210 24.1 53.1 0.00 0.00 0.00 67 998.0
20260505205653 18 207 19.3 45.1 0.00 0.00 0.00 67 998.0
20260505203853 18 198 17.7 38.6 0.00 0.00 0.00 69 997.9
20260505202952 18 196 17.7 33.8 0.00 0.00 0.00 69 998.0
20260505202053 18 190 17.7 38.6 0.00 0.00 0.00 69 998.2
20260505200252 18 194 17.7 32.2 0.00 0.00 0.00 68 998.4
20260505195352 18 196 19.3 41.8 0.00 0.00 0.00 68 998.4
20260505194452 18 189 19.3 37.0 0.00 0.00 0.00 68 998.3
20260505193552 18 200 20.9 48.3 0.00 0.00 0.00 68 998.5
20260505192652 18 186 17.7 35.4 0.00 0.00 0.00 68 998.7
20260505191752 18 198 19.3 40.2 0.00 0.00 0.00 69 998.8
20260505190852 18 200 19.3 41.8 0.00 0.00 0.00 68 999.2
20260505185952 18 192 17.7 35.4 0.00 0.00 0.00 67 999.2
20260505185052 18 177 17.7 35.4 0.00 0.00 0.00 68 999.3
20260505184153 18 218 17.7 35.4 0.00 0.00 0.00 67 999.2
20260505183252 18 189 17.7 33.8 0.00 0.00 0.00 67 999.3
20260505182352 18 163 17.7 32.2 0.00 0.00 0.00 69 999.4
20260505181452 18 175 14.5 30.6 0.00 0.00 0.00 68 999.6
20260505175652 18 165 12.9 32.2 0.00 0.00 0.00 69 999.8
20260505174752 19 158 12.9 29.0 0.00 0.00 0.00 68 999.7
20260505173852 18 167 14.5 30.6 0.00 0.00 0.00 68 999.7
20260505172952 19 198 12.9 29.0 0.00 0.00 0.00 68 999.7
20260505172052 18 184 14.5 32.2 0.00 0.00 0.00 68 999.8
20260505170252 19 176 14.5 32.2 0.00 0.00 0.00 67 999.7
20260505165352 18 194 14.5 30.6 0.00 0.00 0.00 67 999.9
20260505164452 19 183 12.9 29.0 0.00 0.00 0.00 66 999.9
20260505163552 20 187 12.9 27.4 0.00 0.00 0.00 66 1000.2